Location: Albert Place
(40.7505°N, 111.9230°W)
Time: 14:13:01
(UTC+00:00)

CZ-4 R/B - Pass Details

Date: 13 December 2025
Orbit: 675 x 744 km, 98.7° (Epoch: 17 January)

Event Time Altitude Azimuth Distance (km) Brightness Sun altitude
Rises 12:16:42 0° 18° (NNE) 3,041 7.2 -26.9°
Reaches altitude 10° 12:19:00 10° 23° (NNE) 2,119 6.4 -26.5°
Maximum altitude 12:23:31 54° 101° (E) 820 4.4 -25.6°
Drops below altitude 10° 12:28:01 10° 179° (S) 2,106 6.4 -24.8°
Sets 12:30:17 0° 184° (S) 3,021 7.2 -24.4°
